Lapse_Rate
7.7 7.6 7.6 7.5 7.4 8.2 9.6 9.6 9.4 9.3 8.9 8.3 8.3 8.7 8.6 8.2 8.3 8.1 8.4 8.3 8.4 8.3 8.4 8.2 8.0 7.8 7.5 7.4 7.4 7.1 6.9 6.5 6.4 6.4 6.4 6.4 6.5 6.6 6.6 6.5 6.5 6.6 6.7 6.7 6.8 6.7 6.7 6.6 6.5
7.7 7.7 7.7 7.3 7.8 9.5 9.3 9.0 9.3 9.2 8.5 8.2 8.3 8.5 8.6 8.0 8.4 8.3 8.0 8.0 8.1 8.0 8.1 7.9 7.7 7.5 7.2 7.0 6.9 6.7 6.5 6.3 6.2 6.3 6.3 6.4 6.5 6.6 6.6 6.6 6.6 6.7 6.7 6.8 6.7 6.7 6.7 6.7 6.7
7.8 7.8 7.1 8.1 9.2 8.2 9.3 9.0 9.1 8.5 8.3 8.5 8.6 8.4 8.2 8.1 8.1 8.0 8.0 8.0 7.8 7.9 7.8 7.5 7.3 7.1 6.9 6.6 6.6 6.5 6.3 6.2 6.1 6.2 6.3 6.5 6.5 6.6 6.7 6.7 6.7 6.8 6.8 6.8 6.7 6.7 6.8 6.8 6.8
7.8 7.7 7.8 8.2 9.7 9.1 9.5 8.8 8.9 8.6 8.5 8.7 8.9 8.2 8.0 7.7 7.8 7.9 7.9 7.8 7.8 7.9 7.5 7.2 7.0 6.9 6.7 6.4 6.3 6.2 6.1 6.1 6.1 6.2 6.2 6.4 6.4 6.5 6.6 6.7 6.9 6.8 6.8 6.8 6.9 6.8 6.8 6.8 6.9
7.8 7.6 8.6 9.4 9.5 8.8 8.9 8.7 9.1 9.2 8.9 8.6 8.7 8.4 7.8 7.8 7.8 7.7 7.7 7.7 7.5 7.5 7.4 7.3 7.1 6.8 6.4 6.2 6.2 6.1 6.2 6.2 6.2 6.2 6.3 6.4 6.5 6.6 6.7 6.7 6.8 6.8 6.8 6.8 6.7 6.8 6.8 6.8 6.7
7.3 8.1 9.3 9.6 9.5 8.9 8.9 8.8 8.9 9.2 8.9 8.5 8.5 8.1 7.4 7.8 7.6 7.5 7.4 7.3 7.3 7.2 7.1 7.1 7.0 6.8 6.6 6.3 6.1 6.1 6.3 6.2 6.1 6.1 6.4 6.5 6.6 6.6 6.7 6.6 6.6 6.6 6.6 6.6 6.7 6.7 6.7 6.9 6.9
7.2 8.6 9.5 9.7 9.5 9.2 8.8 8.7 9.0 9.3 9.1 9.1 8.6 8.6 7.7 7.6 7.6 7.3 7.1 7.0 7.0 7.0 7.0 7.0 6.9 6.8 6.7 6.5 6.5 6.5 6.3 6.2 6.2 6.2 6.4 6.5 6.5 6.5 6.5 6.3 6.3 6.4 6.4 6.5 6.5 6.5 6.6 6.6 6.7
7.2 8.3 9.3 9.6 9.4 9.3 8.4 8.7 8.7 9.1 9.3 8.5 8.4 8.8 7.6 7.6 7.5 7.3 7.0 6.9 6.8 6.9 6.9 6.9 6.9 6.9 6.9 6.8 6.8 6.7 6.5 6.3 6.3 6.4 6.4 6.4 6.3 6.2 6.1 6.0 6.1 6.3 6.5 6.6 6.7 6.8 6.7 6.5 6.6
7.1 8.2 9.6 9.5 9.5 9.1 8.4 8.6 8.4 8.7 8.9 8.5 8.2 8.3 7.6 7.6 7.5 7.3 7.0 6.9 6.8 6.8 6.8 6.9 7.0 7.0 6.9 6.8 6.7 6.6 6.4 6.5 6.5 6.4 6.2 6.2 6.2 6.0 6.0 6.0 6.1 6.4 6.4 6.4 6.2 6.2 6.3 6.4 6.5
7.4 8.7 9.6 9.3 8.7 8.5 8.3 8.6 8.8 8.5 8.9 8.5 8.1 7.5 7.5 7.4 7.5 7.5 7.2 7.0 6.9 6.8 6.9 6.9 6.8 6.9 6.8 6.7 6.7 6.6 6.5 6.4 6.3 6.2 6.1 6.1 6.1 5.8 6.2 6.3 6.3 6.2 6.3 6.3 6.4 6.4 6.4 6.4 6.3
7.6 8.4 8.7 8.2 8.1 8.2 8.5 8.4 8.4 8.7 9.3 9.3 8.5 8.1 7.7 7.5 7.5 7.4 7.3 7.3 7.0 6.8 6.8 6.8 6.7 6.7 6.7 6.8 6.7 6.7 6.5 6.5 6.4 6.4 6.3 6.1 5.9 5.9 6.0 6.3 6.4 6.3 6.3 6.3 6.3 6.3 6.3 6.5 6.4
7.4 7.7 7.7 8.0 7.8 7.8 8.1 8.3 8.2 8.4 8.7 8.2 8.2 8.1 7.6 7.7 7.5 7.4 7.3 7.3 7.2 7.1 6.8 6.8 6.9 6.8 6.8 6.8 6.6 6.6 6.5 6.4 6.4 6.3 6.2 6.1 6.0 6.2 6.1 6.3 6.5 6.3 6.4 6.5 6.5 6.6 6.8 6.8 6.5
7.4 7.6 7.5 7.6 7.6 7.7 7.8 7.8 7.9 8.2 8.4 8.1 7.8 7.7 7.7 7.4 7.2 7.0 6.8 7.0 6.4 7.1 7.0 6.9 6.9 6.8 6.8 6.7 6.6 6.5 6.6 6.4 6.3 6.3 6.3 6.3 6.4 6.3 6.3 6.2 6.1 6.1 6.0 6.1 6.5 6.5 6.5 6.8 7.0
7.6 7.4 7.4 7.4 7.5 7.6 7.6 7.8 8.0 8.2 8.3 8.0 7.8 7.7 7.6 7.5 7.3 7.2 6.8 6.6 6.9 7.0 7.0 6.8 6.8 6.8 6.8 6.7 6.6 6.6 6.4 6.5 6.4 6.6 6.6 6.5 6.5 6.5 6.3 6.2 6.2 6.1 6.4 6.4 6.3 6.5 6.6 6.6 6.7
7.1 7.2 7.5 7.7 7.6 7.6 7.6 7.6 7.9 8.2 8.2 8.1 7.9 7.7 7.8 7.6 7.3 7.3 7.0 6.6 7.0 6.9 6.9 6.8 6.7 6.8 6.7 6.6 6.5 6.5 6.5 6.7 6.7 6.6 6.6 6.7 6.7 6.6 6.0 6.1 6.0 6.1 6.1 6.0 6.1 6.1 6.3 6.5 6.4
7.0 7.4 7.8 8.7 8.0 7.6 7.4 8.3 9.1 8.3 8.0 8.0 7.8 7.9 7.6 7.5 7.5 7.4 7.1 6.8 6.4 6.9 7.0 7.0 6.9 6.7 6.6 6.6 6.6 6.6 6.7 6.8 6.7 6.8 6.9 7.0 6.8 6.6 6.6 6.4 6.1 6.1 5.9 5.9 6.0 6.0 6.2 6.4 6.8
7.5 7.9 8.7 9.3 7.9 8.1 7.4 8.4 9.7 7.6 7.8 7.9 7.8 7.7 7.7 7.6 7.4 7.4 7.3 7.1 6.6 6.7 7.0 7.1 7.0 6.9 6.7 6.6 6.7 6.6 6.7 6.8 6.9 6.9 7.0 7.1 7.3 7.1 6.6 6.5 6.3 6.2 6.1 6.0 6.1 6.0 6.2 6.5 6.6
9.1 8.7 8.6 9.0 9.0 7.7 7.9 8.1 8.6 8.3 7.8 7.8 7.7 7.7 7.7 7.7 7.7 7.7 7.4 7.1 6.9 6.5 7.1 7.0 7.1 7.0 7.0 6.9 6.8 6.9 7.1 7.0 6.9 6.9 6.8 6.8 6.9 7.0 6.7 6.5 6.3 6.1 6.1 6.0 6.0 6.3 6.6 6.8 6.6
7.8 7.9 8.3 8.9 8.5 7.3 7.8 7.9 8.1 8.5 8.3 7.9 7.9 7.8 7.8 7.8 7.9 7.8 7.4 7.2 6.9 6.8 7.0 7.3 7.1 7.1 7.1 7.1 7.2 7.2 7.2 7.0 6.9 6.8 6.8 6.7 6.6 6.7 6.5 6.6 6.4 6.3 6.2 6.1 6.1 6.0 6.3 6.5 6.6
7.0 7.5 7.9 8.1 8.2 7.4 7.8 8.0 8.2 8.4 8.4 8.4 8.3 8.2 8.2 8.3 8.3 8.0 7.5 7.3 7.2 7.4 7.3 7.3 7.2 7.1 7.1 7.1 7.0 7.1 7.0 6.8 6.7 6.6 6.7 6.8 6.6 6.5 6.4 6.5 6.2 6.2 6.1 6.1 6.3 6.1 6.1 6.2 6.0
7.0 7.3 7.8 7.9 8.0 7.8 7.9 7.9 8.5 8.4 8.3 8.4 8.3 8.1 8.1 8.0 7.9 7.8 7.8 7.8 7.6 7.4 7.3 7.2 7.1 6.9 7.0 7.3 7.0 6.8 6.7 6.6 6.8 6.9 6.7 6.6 6.3 6.1 6.1 6.2 6.1 6.1 6.3 6.1 5.8 6.1 6.0 6.0 6.3
7.3 7.5 7.3 7.5 7.8 8.5 8.0 8.7 9.6 8.8 8.4 8.3 8.3 8.2 8.0 7.5 7.9 7.8 7.5 7.5 7.5 7.5 7.4 7.4 7.1 6.9 7.2 7.3 7.0 7.0 6.8 6.5 6.7 6.6 6.5 6.3 6.4 6.3 6.2 6.3 6.2 6.3 5.9 5.8 5.9 6.1 6.4 6.4 6.6
7.3 7.1 7.2 7.3 7.6 7.8 8.3 8.3 8.8 9.6 9.0 8.8 9.0 8.5 7.6 7.5 7.7 7.5 7.5 7.4 7.4 7.5 7.6 7.5 7.3 7.1 7.3 6.9 6.9 7.0 6.9 6.7 6.7 6.6 6.4 6.2 6.3 6.1 6.3 6.4 6.3 6.1 5.9 5.9 6.1 6.2 6.2 6.2 6.1
6.9 6.9 7.0 7.1 7.4 7.6 7.9 8.2 9.1 9.5 9.4 9.3 8.2 8.1 7.9 7.8 7.5 7.4 7.4 7.5 7.5 7.5 7.6 7.3 7.1 7.1 7.1 7.1 7.1 6.9 6.6 6.5 6.5 6.4 6.1 6.2 6.2 6.2 6.2 6.1 6.0 5.8 5.9 6.0 6.0 5.9 5.7 5.7 5.9
6.9 7.3 8.1 8.6 8.5 8.3 8.5 8.5 8.6 8.9 8.4 8.5 8.2 7.8 7.8 7.5 7.3 7.3 7.1 7.1 7.2 7.2 7.2 7.1 6.9 6.9 6.8 6.7 6.6 6.7 6.4 6.2 6.2 6.1 6.1 6.1 6.2 6.0 5.9 6.0 5.9 5.9 6.0 5.9 5.8 5.7 5.8 5.9 5.9
7.1 7.7 8.2 8.4 9.3 9.6 7.9 7.9 7.9 7.7 7.7 7.6 7.6 7.2 6.8 7.1 7.2 7.0 7.0 7.0 6.9 7.0 6.9 6.8 6.8 6.8 6.8 6.8 6.7 6.6 6.3 6.2 6.1 6.1 6.0 6.3 6.1 6.1 6.1 6.0 5.8 5.9 5.8 5.8 5.8 5.8 5.9 5.9 5.9
8.2 7.4 8.0 7.8 7.8 7.8 7.8 7.9 7.9 7.7 7.2 7.5 7.0 6.8 7.1 6.9 7.2 7.1 7.0 7.0 6.7 6.6 6.5 6.6 6.6 6.8 6.8 6.6 6.4 6.2 6.1 6.1 6.1 6.1 6.2 6.1 6.1 6.1 5.9 5.8 5.8 5.7 5.8 5.8 5.8 5.7 5.7 5.8 5.5
7.9 8.3 7.6 7.7 7.6 7.6 8.6 8.5 9.1 7.7 7.2 7.3 7.1 7.0 7.2 7.0 7.0 7.0 6.7 6.5 6.3 6.3 6.4 6.4 6.4 6.5 6.5 6.4 6.3 6.2 6.1 6.1 6.2 6.2 6.1 6.0 6.0 5.9 5.9 5.7 5.7 5.8 5.8 5.8 5.7 5.8 5.7 5.5 5.6
8.2 7.6 7.7 7.7 7.8 8.2 8.0 7.9 8.1 7.2 7.1 7.1 7.2 6.8 6.7 6.1 5.9 6.1 6.2 6.3 6.2 6.1 6.0 6.0 6.1 6.0 6.0 6.2 6.3 6.2 6.3 6.2 6.1 6.0 6.0 5.9 5.7 5.7 5.7 5.7 5.4 5.6 5.6 5.7 5.7 5.6 5.3 5.4 5.5
7.5 8.2 8.4 8.0 7.4 7.6 7.8 7.1 7.7 7.2 6.9 6.7 7.2 7.0 6.4 5.9 5.7 5.5 5.2 5.6 5.7 5.9 6.0 5.9 5.9 5.9 5.9 5.9 5.9 6.1 6.1 6.1 6.0 5.9 5.7 5.5 5.6 5.6 5.8 5.2 5.2 5.6 5.5 5.6 5.5 5.3 5.2 5.3 5.7
Wind_Speed
10 12 9 6 8 8 9 6 12 10 7 6 6 12 13 18 15 7 10 9 14 17 22 19 18 19 20 21 21 20 20 19 18 17 16 15 14 14 13 12 11 11 11 10 10 9 9 9 8
11 5 6 8 9 9 12 13 8 11 11 7 6 3 8 13 15 11 9 11 15 16 21 21 19 20 19 20 20 20 19 18 17 17 16 15 14 13 13 11 11 11 10 10 9 8 9 8 7
14 8 10 6 12 12 3 5 13 11 6 3 6 9 5 7 9 6 14 14 16 16 21 21 19 19 19 19 19 19 18 18 17 17 16 16 14 13 13 12 10 10 9 10 8 7 8 7 7
7 6 7 10 7 9 12 9 15 10 6 2 3 13 8 9 4 11 13 15 15 16 19 21 18 18 17 17 16 16 16 17 17 16 16 15 14 13 12 11 10 10 9 8 8 7 7 6 6
8 7 11 15 11 6 7 6 3 6 5 6 7 10 11 9 12 15 14 13 14 14 18 20 16 15 15 15 15 16 16 16 16 16 15 14 14 13 12 11 11 11 9 8 7 6 5 4 5
9 6 11 10 11 7 7 4 3 2 3 8 1 11 10 12 12 13 12 12 13 13 17 20 17 18 17 16 15 15 16 16 16 15 15 15 14 13 12 12 11 10 9 7 5 5 5 5 6
16 10 13 6 10 8 6 3 5 3 3 9 2 11 8 11 13 14 13 12 13 12 13 17 19 19 19 19 18 18 18 17 17 16 15 16 15 13 12 11 10 9 7 6 5 3 2 1 3
10 9 5 7 9 11 6 4 2 7 6 6 4 4 13 14 14 13 13 13 12 12 14 13 18 20 18 17 17 18 19 17 16 16 16 16 14 12 11 9 8 7 7 6 6 6 5 4 4
8 10 10 9 4 10 7 6 7 2 4 5 4 8 10 17 16 14 13 14 12 12 14 14 14 17 16 18 18 17 15 16 16 15 15 17 14 12 11 6 10 6 5 4 4 4 5 6 6
10 11 3 6 4 3 6 9 3 10 8 8 7 6 9 14 16 17 16 15 16 15 16 15 15 12 14 14 18 18 17 17 17 17 17 15 12 10 9 10 7 4 6 7 7 8 9 11 11
13 15 7 5 4 4 5 8 5 10 6 4 9 15 11 15 15 15 16 16 17 16 13 13 10 10 13 10 14 16 17 17 16 19 18 15 10 10 8 9 9 9 10 10 10 9 10 13 9
10 14 4 6 5 9 11 9 7 13 12 4 4 3 12 14 15 17 16 16 17 16 16 15 14 9 7 10 13 15 9 13 12 12 16 12 8 8 7 12 14 11 12 9 7 7 5 5 8
12 14 9 12 10 12 13 14 16 16 9 8 10 8 11 13 15 15 15 15 15 15 15 16 17 12 11 9 10 11 10 12 14 15 15 13 8 6 6 4 1 6 9 5 4 6 5 7 9
8 10 10 12 13 14 17 18 18 20 15 17 15 15 15 14 14 14 15 15 14 15 15 15 16 16 11 10 10 8 12 12 9 12 13 13 11 3 4 3 6 4 5 3 4 5 4 4 6
11 15 16 18 18 17 14 18 24 23 17 20 19 17 17 14 15 15 15 15 16 14 14 15 14 16 13 14 9 9 11 11 6 8 14 13 11 8 6 4 4 6 5 5 5 6 6 5 7
15 16 15 16 10 8 11 16 11 11 10 15 16 17 16 15 15 16 13 15 16 15 16 16 13 14 13 12 11 7 9 7 7 8 6 9 11 11 7 5 5 6 5 5 6 5 5 4 5
16 14 18 10 11 8 14 15 7 7 8 12 12 13 14 12 14 14 14 14 16 18 17 18 17 16 15 12 8 6 7 7 7 8 9 12 13 12 9 5 6 6 6 4 5 5 7 6 5
7 17 15 9 10 10 14 16 15 10 12 12 11 11 12 13 14 15 14 17 17 16 16 17 16 17 13 9 8 7 6 8 11 10 12 12 11 12 11 8 6 5 5 6 5 7 6 6 4
11 13 14 10 4 4 15 17 17 16 12 15 14 13 13 14 13 12 12 15 16 15 17 18 17 18 13 9 9 8 8 7 6 8 13 14 12 13 11 5 4 5 4 7 8 7 7 6 7
13 14 15 14 10 6 16 19 17 15 17 17 16 17 19 18 17 15 8 8 13 15 16 17 17 18 15 9 9 9 10 7 10 8 12 14 14 12 10 5 3 2 3 6 8 9 6 7 6
15 16 15 13 7 12 17 20 24 23 20 18 15 11 13 5 5 6 9 11 11 11 12 14 17 17 14 13 11 10 10 9 9 10 10 12 15 12 8 7 5 6 7 7 6 7 9 9 9
13 15 12 13 12 11 3 13 8 6 10 14 15 13 8 7 5 4 4 8 9 10 10 13 15 15 18 17 14 14 13 13 10 12 9 10 13 11 13 9 7 7 6 6 6 7 7 8 10
8 2 8 12 14 14 17 10 14 13 9 13 14 12 7 6 5 3 5 7 8 7 8 9 13 14 18 15 12 13 17 12 9 9 13 10 9 9 9 9 7 7 5 6 7 7 8 7 7
2 6 10 12 12 13 18 14 10 12 15 6 5 8 9 8 5 4 4 3 6 6 7 9 11 12 14 13 15 17 17 13 11 8 9 8 9 8 9 9 7 6 6 7 7 8 11 10 9
10 9 7 9 8 12 2 5 12 12 3 5 7 10 7 4 2 3 5 7 6 7 7 7 9 9 12 11 14 13 16 11 12 13 11 11 8 8 8 7 6 6 7 8 9 10 10 11 9
14 14 8 10 11 12 9 5 8 3 4 3 8 5 6 7 5 4 5 5 7 8 9 10 10 11 13 14 16 15 13 9 11 12 9 8 7 7 6 6 6 7 8 8 9 9 9 10 9
9 9 13 15 15 15 16 20 14 14 13 12 11 10 11 8 7 5 5 6 7 8 9 11 12 12 13 13 11 12 12 13 10 10 8 7 6 5 5 4 6 7 10 10 11 9 11 11 10
15 9 7 9 10 17 11 14 9 7 10 9 10 12 12 9 9 8 7 8 8 9 11 13 14 16 14 13 13 12 12 10 10 9 10 9 6 5 5 6 7 9 10 11 12 10 12 12 10
10 14 15 16 13 16 17 15 4 7 8 6 9 9 9 10 10 9 9 10 11 11 12 13 14 16 18 17 15 13 12 12 11 9 9 8 7 6 7 7 9 10 11 11 11 13 14 15 13
15 19 17 13 15 16 16 15 15 16 14 10 12 8 11 12 9 9 8 10 12 14 14 15 15 16 14 15 15 12 11 10 11 11 10 8 8 6 6 6 8 9 11 11 13 14 14 15 16
Wind_Direction
201 215 234 239 238 236 201 129 101 113 128 46 18 355 23 26 13 68 101 98 128 131 138 141 126 125 128 131 134 133 135 137 136 133 127 124 124 126 125 122 119 118 115 112 107 108 103 103 106
242 220 232 264 252 222 110 121 171 77 89 98 109 132 39 56 61 97 98 121 138 138 147 145 140 136 135 134 136 137 141 138 134 134 135 134 137 134 128 121 115 114 113 109 107 107 106 109 111
258 234 259 236 245 96 215 94 89 97 138 193 114 46 25 86 107 84 106 140 139 144 157 145 147 142 142 142 139 139 140 137 140 141 144 143 144 137 133 122 121 122 119 110 108 116 118 129 138
205 199 242 244 159 191 98 95 111 128 136 346 71 103 95 31 106 115 136 142 144 147 159 140 149 145 143 138 138 141 139 142 144 145 149 151 147 140 133 127 131 127 118 122 130 133 136 145 152
238 259 251 233 74 118 100 87 200 121 83 89 307 96 101 96 103 122 137 142 148 155 144 151 151 144 144 145 147 147 147 148 149 152 154 152 145 144 136 137 133 129 134 136 143 135 130 140 171
236 264 242 212 124 123 102 134 186 58 86 87 149 115 94 126 133 134 140 148 149 159 133 153 158 157 156 155 156 154 154 156 157 156 156 153 145 145 144 145 139 141 148 146 142 147 159 177 195
252 224 265 66 121 157 101 163 208 195 278 122 343 126 113 152 129 148 149 151 155 155 148 159 173 172 167 167 166 165 165 166 162 161 164 148 152 154 155 157 154 152 150 147 151 161 165 167 190
286 277 247 231 177 126 137 199 165 245 149 77 300 133 156 145 154 151 149 151 157 158 145 170 180 180 181 178 173 170 172 169 165 165 161 160 160 165 170 166 168 166 165 159 167 172 175 186 191
252 254 210 176 207 127 158 207 181 316 248 240 138 53 86 139 157 163 162 158 162 172 165 174 190 182 186 182 175 175 172 168 168 166 168 168 182 182 168 154 151 172 170 166 181 202 200 195 191
247 253 239 90 54 129 189 228 158 208 192 181 193 106 141 160 176 175 182 178 175 183 180 178 189 167 185 186 170 186 180 184 189 187 181 197 189 182 170 142 135 176 196 197 196 204 207 213 218
236 261 64 158 238 267 264 220 219 241 226 246 200 169 172 179 192 198 196 189 186 180 187 182 194 162 180 170 172 185 187 192 196 194 191 214 205 190 198 157 184 204 200 216 202 205 227 224 263
255 253 286 253 169 246 244 271 255 236 266 57 288 264 175 199 204 207 207 201 186 183 180 181 175 178 178 177 188 175 180 185 199 189 194 217 208 185 210 175 193 216 164 226 213 230 254 293 273
246 268 234 249 243 241 256 254 253 259 246 251 234 213 215 216 217 217 213 210 183 187 185 183 172 180 184 183 200 176 186 190 203 189 191 218 206 211 196 233 251 201 190 223 253 275 263 242 246
309 269 264 246 241 245 248 254 250 246 252 245 238 229 224 217 227 213 212 207 195 195 186 185 182 178 185 193 190 202 214 183 217 163 177 211 231 201 233 213 238 230 241 264 256 266 286 255 266
272 259 257 241 235 235 240 253 246 249 241 247 248 217 245 217 224 220 207 209 200 204 183 183 190 170 190 199 188 200 194 214 197 202 178 176 220 216 219 204 229 243 228 259 267 287 314 340 319
251 247 256 256 197 194 214 263 269 192 235 244 246 244 223 232 231 229 214 199 201 201 189 183 188 182 189 194 194 196 186 206 197 219 191 184 207 218 209 209 224 211 241 274 254 272 254 234 253
228 258 234 205 194 239 209 263 89 156 225 246 233 233 222 225 226 226 220 213 205 197 189 184 185 193 190 188 189 186 186 179 185 180 184 206 210 216 229 221 237 220 248 248 259 270 273 269 250
271 212 243 256 172 210 255 249 269 225 211 230 232 216 217 215 226 216 222 209 209 205 193 193 181 188 186 179 182 184 178 189 187 190 202 199 210 216 213 231 241 265 254 282 270 255 281 253 270
311 288 286 283 255 246 265 261 262 263 226 222 225 228 230 234 234 229 197 219 211 210 191 198 190 185 176 183 180 173 181 181 181 200 194 196 207 211 219 234 232 226 298 308 317 301 294 279 264
259 262 263 266 262 278 267 269 265 251 244 242 232 228 228 227 222 214 213 234 213 215 211 202 202 196 182 184 182 184 183 183 186 194 197 203 208 212 223 221 256 245 247 262 258 277 267 272 267
246 256 264 272 272 234 262 271 248 239 240 241 242 254 263 271 268 230 216 215 214 228 235 227 206 200 165 169 201 188 180 180 196 196 199 204 201 207 200 198 215 227 212 252 261 275 274 276 265
256 241 253 268 264 267 141 279 288 193 216 215 227 224 222 201 184 198 206 209 215 227 226 225 224 199 159 170 201 190 184 188 195 196 191 189 189 188 194 206 214 228 250 266 264 254 258 272 272
270 354 260 253 260 274 268 255 263 247 219 228 230 157 170 150 171 182 182 204 202 194 195 231 219 205 173 173 199 197 198 204 188 198 196 176 173 197 197 205 218 232 240 255 258 274 274 269 265
321 238 243 252 254 256 253 252 264 232 198 125 89 125 149 170 177 175 158 186 204 178 180 212 220 184 187 184 198 204 210 199 195 172 171 187 177 187 203 207 219 233 245 253 263 264 263 264 266
220 241 255 223 218 252 175 256 253 316 301 272 194 187 178 194 215 188 205 195 191 178 183 201 201 197 195 190 215 214 209 185 192 186 188 182 188 193 195 197 218 237 245 260 260 259 255 252 250
207 248 257 290 294 293 154 234 237 265 29 284 273 244 231 217 188 220 220 201 185 187 180 190 196 195 195 198 214 206 205 189 196 191 184 193 192 199 189 205 228 246 255 258 254 256 253 255 249
206 234 263 277 272 271 267 272 264 229 215 237 242 237 223 223 199 219 203 198 203 191 193 200 196 196 198 198 205 207 192 201 196 176 191 184 192 206 209 229 241 251 254 254 257 252 259 254 246
251 289 249 221 260 266 250 248 263 176 198 234 236 229 222 225 202 212 218 203 213 208 195 196 202 204 197 198 203 201 195 198 190 183 189 191 193 196 206 222 235 254 262 263 264 264 257 255 251
204 233 240 268 271 273 276 271 49 355 351 294 248 231 231 215 224 227 223 213 216 222 217 201 206 215 200 200 195 190 192 186 194 191 198 195 194 195 214 232 245 258 264 267 266 261 261 263 263
266 276 264 245 262 256 262 258 265 278 266 232 255 249 233 257 237 242 232 232 236 228 222 220 212 218 204 199 200 197 184 188 195 193 192 181 187 199 230 251 265 276 278 280 281 277 272 269 271